Wind_Speed
20 19 19 20 19 17 17 17 17 15 15 13 13 13 13 13 12 10 11 11 12 12 12 13 13 13 14 15 15 16 16 17 18 19 20 21 21 22 23 23 24 24 24 24
21 20 19 19 19 18 18 18 17 16 17 15 14 13 13 14 14 12 13 13 13 14 14 14 14 15 15 16 16 17 17 18 20 21 21 22 22 23 23 24 25 25 25 25
22 21 21 19 18 18 19 18 16 16 16 16 15 14 15 15 15 15 16 16 16 16 15 15 15 16 17 17 18 18 19 20 21 21 22 22 23 23 24 25 25 25 25 25
23 22 22 19 18 19 19 18 18 17 16 17 16 16 16 16 17 17 17 17 16 17 17 16 17 17 18 19 19 19 20 20 21 22 23 23 23 24 25 26 26 25 25 25
25 23 22 20 19 19 19 19 18 18 17 17 17 17 17 17 19 19 19 18 18 18 18 18 18 17 17 19 20 20 21 21 22 23 24 24 24 25 26 26 26 26 26 26
25 25 24 21 20 20 20 20 19 19 19 18 18 18 19 19 20 21 19 19 20 20 19 19 18 18 19 19 20 21 21 22 22 23 24 24 25 26 27 26 27 27 27 27
25 25 24 22 20 20 22 21 20 20 20 20 19 20 20 20 21 21 20 20 20 21 20 19 19 20 21 21 21 22 23 23 23 24 25 25 26 27 27 28 28 28 28 27
27 26 26 23 22 22 22 21 21 21 21 21 20 21 21 21 22 21 21 20 20 20 21 22 23 22 22 23 23 24 25 24 24 25 26 26 27 27 28 28 29 28 28 27
28 27 25 24 23 23 23 23 22 22 21 21 21 22 22 22 21 21 21 21 20 22 22 23 22 23 23 24 24 25 26 25 25 26 27 27 28 28 28 28 28 28 28 27
27 26 25 23 23 22 22 22 23 23 23 22 21 21 21 21 21 21 22 22 22 23 23 24 24 23 24 25 25 25 25 25 26 27 27 28 28 28 28 28 27 27 27 27
28 27 26 24 25 24 24 24 24 23 23 22 22 22 22 22 22 22 22 23 23 23 23 24 23 24 24 25 25 25 26 28 28 27 27 27 28 28 28 27 27 27 27 28
28 27 27 26 25 25 26 26 25 25 24 23 23 24 23 23 24 24 24 24 24 24 24 24 24 25 25 25 26 27 27 28 28 28 28 28 28 28 28 28 28 28 28 29
28 27 27 26 26 26 28 27 27 26 26 24 24 24 24 24 24 23 24 25 26 25 24 25 25 25 26 25 25 26 27 28 29 29 29 29 28 28 28 28 28 29 29 29
27 28 29 28 27 27 28 28 28 27 26 25 25 25 25 25 25 25 25 26 26 25 25 26 26 26 26 27 27 27 28 29 29 29 29 29 29 29 29 29 29 29 29 29
27 27 27 27 27 28 28 28 28 27 27 27 26 27 27 27 27 26 26 26 26 26 25 25 26 26 27 27 27 27 28 29 29 29 29 29 28 28 29 29 29 29 28 28
25 27 28 28 28 28 28 28 28 28 28 28 27 27 27 27 27 26 26 26 25 25 25 25 25 26 27 27 27 28 29 29 28 28 28 28 28 28 28 29 29 28 28 28
23 24 26 27 27 27 27 27 28 27 27 27 26 26 27 27 27 26 25 25 25 25 25 25 26 26 27 28 28 28 28 28 28 28 27 27 27 27 28 28 28 27 27 26
23 23 23 24 24 24 25 26 26 27 26 26 26 26 26 25 25 25 25 25 25 25 25 26 26 26 27 27 28 28 27 27 26 26 26 26 27 27 27 27 27 26 25 25
23 23 23 24 23 24 24 24 24 24 25 25 25 26 25 24 23 24 25 25 25 25 25 25 26 26 27 27 27 27 27 26 26 26 26 26 27 27 27 27 26 26 25 24
23 22 22 23 23 23 23 24 24 25 25 25 25 25 25 24 24 24 24 23 23 24 25 25 26 26 27 27 27 26 26 26 26 26 26 26 26 26 27 26 26 25 24 24
22 21 22 22 22 22 23 24 24 24 24 24 24 24 23 24 24 24 23 23 23 24 25 25 26 26 26 26 26 26 25 25 25 25 25 26 26 26 26 26 25 24 23 24
22 22 21 22 22 21 22 23 24 24 24 24 24 24 23 23 23 24 24 23 23 24 25 26 26 26 26 26 25 25 25 25 25 25 25 25 25 25 25 25 24 23 23 24
21 21 21 21 21 21 21 22 23 24 23 23 23 23 23 23 23 23 23 23 23 24 25 25 25 25 25 25 25 25 25 25 25 24 24 24 25 25 24 24 24 24 24 24
20 20 21 20 20 21 21 22 23 23 22 22 22 22 22 22 23 24 23 23 24 24 24 25 25 25 24 24 24 24 24 24 24 24 24 24 25 25 24 24 24 24 24 24
20 20 20 20 20 21 21 22 22 23 23 23 22 22 22 22 23 23 23 23 23 24 24 24 24 23 23 24 24 24 24 24 24 24 24 24 25 25 24 23 23 24 24 24
20 20 21 21 21 21 21 20 20 21 22 22 22 22 22 22 23 23 23 23 23 24 23 23 23 23 24 24 24 24 24 24 24 24 24 25 25 24 23 23 23 23 24 24
19 19 20 20 20 20 20 20 20 20 20 21 22 22 22 23 23 23 23 22 22 22 22 23 23 23 23 23 23 23 23 23 23 23 24 24 23 23 23 23 23 23 23 23
Wind_Direction
242 242 240 241 243 244 248 255 261 270 277 283 286 286 285 280 279 279 283 290 294 294 293 297 299 300 301 302 305 307 307 309 311 313 313 313 313 312 312 311 310 310 309 309
243 244 244 243 243 243 246 250 257 266 272 277 281 281 282 276 276 280 286 290 293 295 296 297 298 298 297 298 302 306 308 308 308 310 311 312 311 310 310 310 309 309 310 310
243 241 242 241 238 240 246 251 254 262 269 270 271 276 276 273 275 284 289 291 292 294 297 296 299 306 302 300 302 304 306 308 309 310 312 312 311 310 311 310 309 309 310 309
244 241 239 241 239 241 245 251 255 258 263 266 267 268 273 275 279 285 289 291 295 295 295 298 300 303 304 303 303 304 306 308 309 310 311 311 310 310 311 312 312 311 310 308
246 243 240 238 238 239 244 247 252 256 262 267 268 270 272 274 280 285 288 286 290 297 296 297 299 300 303 305 304 304 304 305 307 309 310 310 310 310 311 312 312 312 311 310
245 244 241 239 238 240 245 246 250 256 259 261 266 272 276 276 280 287 287 286 286 293 294 293 297 301 303 304 304 304 305 306 307 308 310 310 310 311 311 311 311 311 310 309
246 247 246 245 244 243 246 248 252 256 259 261 266 275 278 278 281 285 286 285 287 289 291 293 296 299 302 304 304 306 307 306 307 307 309 310 310 310 310 310 309 308 307 307
245 246 247 247 248 247 249 250 254 258 262 265 269 271 272 275 280 280 283 284 286 289 290 293 294 296 299 302 301 303 305 304 305 307 309 309 310 309 309 308 308 307 307 306
243 247 249 249 249 249 250 252 255 259 262 266 268 269 270 274 277 277 280 281 286 290 289 291 293 296 298 300 301 301 304 302 303 305 307 308 309 309 310 309 308 308 307 306
242 245 249 251 251 250 252 253 255 258 261 263 267 270 273 275 275 276 278 281 287 288 289 289 291 294 297 298 300 302 302 301 303 304 305 307 308 309 310 310 309 309 308 307
243 246 249 251 251 250 249 251 254 257 262 266 268 270 273 274 274 277 280 281 284 287 288 290 291 294 296 298 301 302 303 304 304 305 306 307 308 310 311 309 309 308 308 308
244 245 248 250 250 250 251 253 255 258 261 264 269 272 272 274 277 278 279 281 285 287 288 290 291 293 295 298 301 302 304 305 305 305 305 306 307 308 308 309 309 309 307 307
244 246 247 249 250 251 250 253 256 258 260 264 267 270 272 274 276 278 278 282 285 287 289 291 292 294 297 298 299 302 304 305 305 305 304 305 307 308 309 309 310 310 309 308
244 246 245 248 248 247 248 252 255 257 260 262 265 268 271 273 275 277 278 279 282 286 290 291 294 296 299 301 301 302 303 304 306 306 307 306 307 308 309 309 309 309 309 308
245 245 247 248 246 246 249 252 253 257 258 260 262 266 271 274 277 279 281 281 283 286 289 291 293 296 298 301 303 304 305 306 306 307 308 309 309 309 310 310 310 310 309 308
248 247 248 249 251 252 253 254 255 256 257 258 260 265 269 273 276 279 280 281 283 285 288 290 292 294 297 299 301 302 303 305 306 308 309 309 309 309 310 311 311 311 310 310
248 249 250 251 251 251 251 252 253 255 256 258 261 265 268 271 274 278 281 281 282 283 285 289 291 294 296 298 299 301 303 304 305 306 308 308 309 310 311 312 312 312 311 311
248 248 251 254 252 250 250 252 254 257 259 261 265 269 271 272 275 279 282 283 283 284 286 289 292 294 295 297 298 300 302 303 304 305 306 307 308 310 312 313 313 312 311 311
249 249 250 252 254 253 252 253 254 257 261 263 264 265 267 272 277 280 281 282 283 284 287 290 291 293 295 296 298 299 301 303 305 305 306 307 309 311 312 313 313 312 312 313
248 249 251 252 253 253 252 254 257 260 262 263 266 267 267 270 275 279 279 281 283 285 287 289 291 292 294 296 298 298 300 303 304 305 305 308 311 312 313 313 312 310 311 312
248 249 250 250 253 256 256 257 258 260 262 264 267 270 272 274 275 277 278 279 283 285 287 288 289 291 294 296 297 297 298 301 303 303 305 308 310 313 315 314 313 313 313 314
248 247 249 251 252 255 257 258 260 261 262 264 267 271 273 274 274 276 278 280 283 286 288 288 289 291 294 296 297 297 298 299 301 303 304 307 310 313 315 315 314 314 315 316
249 249 250 251 252 254 258 260 261 262 263 265 268 271 273 275 275 277 279 282 284 285 286 287 288 291 294 295 295 295 296 297 300 302 305 308 310 312 313 314 314 315 316 316
252 252 253 254 255 257 259 260 262 263 264 266 268 269 272 274 275 278 280 282 285 285 286 286 287 290 293 293 293 294 295 297 298 301 304 307 309 310 311 313 314 314 315 316
255 254 255 257 258 258 260 261 261 263 264 266 267 269 272 274 277 279 280 282 284 286 286 287 288 290 292 292 293 294 295 297 298 300 302 305 307 309 310 312 313 314 315 316
257 255 255 256 258 259 261 263 262 263 264 265 267 270 271 273 277 279 279 280 283 285 285 285 288 289 291 291 293 295 296 297 297 298 300 303 306 306 308 310 312 313 314 315
256 254 254 255 257 259 260 261 264 264 265 267 268 269 270 273 276 277 278 280 282 283 284 286 288 289 290 290 292 294 296 298 298 299 300 303 306 306 307 309 312 313 314 315
Height
5862 5864 5865 5866 5868 5869 5869 5869 5870 5870 5870 5870 5870 5869 5869 5869 5869 5868 5868 5868 5867 5866 5865 5864 5863 5862 5861 5859 5857 5855 5853 5851 5848 5846 5844 5841 5838 5835 5832 5829 5826 5822 5819 5816
5857 5859 5860 5862 5863 5864 5865 5865 5865 5866 5866 5866 5866 5865 5865 5865 5865 5865 5864 5864 5863 5862 5861 5860 5859 5858 5856 5855 5853 5851 5849 5847 5844 5841 5839 5836 5833 5830 5827 5823 5820 5816 5813 5809
5851 5853 5855 5856 5858 5859 5860 5861 5861 5861 5862 5862 5862 5862 5862 5861 5861 5861 5861 5860 5860 5859 5858 5857 5855 5853 5852 5851 5848 5846 5844 5842 5839 5836 5834 5831 5828 5825 5821 5817 5814 5810 5807 5803
5846 5848 5849 5854 5853 5854 5855 5856 5856 5857 5858 5858 5859 5859 5858 5858 5857 5857 5857 5857 5856 5855 5854 5853 5851 5850 5848 5846 5843 5841 5839 5837 5834 5831 5828 5825 5822 5819 5815 5812 5808 5804 5801 5797
5839 5841 5843 5847 5847 5849 5850 5851 5851 5852 5853 5853 5854 5854 5854 5854 5854 5853 5853 5852 5851 5850 5849 5848 5847 5845 5843 5841 5839 5837 5834 5832 5829 5826 5823 5820 5817 5813 5809 5806 5802 5798 5795 5791
5833 5835 5837 5842 5843 5843 5845 5845 5847 5847 5848 5849 5849 5850 5850 5849 5849 5849 5848 5847 5846 5844 5843 5843 5842 5840 5839 5836 5834 5832 5830 5827 5824 5821 5818 5814 5811 5807 5803 5799 5796 5792 5788 5785
5827 5828 5831 5835 5837 5839 5840 5841 5842 5842 5843 5844 5844 5845 5846 5845 5844 5843 5843 5842 5841 5840 5839 5837 5836 5835 5833 5831 5829 5826 5824 5821 5818 5815 5812 5808 5804 5801 5797 5793 5789 5786 5782 5779
5821 5823 5827 5829 5831 5833 5834 5835 5836 5837 5838 5839 5839 5839 5839 5839 5839 5838 5837 5837 5836 5835 5834 5832 5831 5829 5827 5825 5823 5820 5818 5815 5812 5809 5805 5802 5798 5794 5790 5786 5783 5779 5775 5771
5815 5818 5820 5822 5824 5826 5827 5829 5830 5831 5832 5833 5833 5834 5834 5834 5833 5833 5832 5831 5830 5829 5828 5827 5825 5823 5822 5819 5817 5814 5811 5808 5805 5802 5798 5795 5791 5787 5784 5780 5776 5772 5768 5764
5808 5810 5812 5815 5817 5819 5820 5822 5823 5824 5826 5827 5827 5827 5828 5827 5827 5826 5826 5825 5824 5823 5822 5820 5819 5817 5815 5812 5810 5807 5804 5801 5798 5795 5791 5788 5784 5780 5777 5773 5769 5765 5761 5757
5800 5803 5805 5807 5810 5812 5814 5815 5816 5817 5819 5820 5820 5821 5821 5821 5820 5820 5820 5819 5818 5817 5815 5814 5812 5810 5808 5805 5803 5801 5798 5795 5791 5788 5784 5781 5777 5774 5770 5766 5762 5758 5754 5750
5793 5796 5798 5800 5803 5805 5807 5808 5810 5811 5812 5813 5814 5814 5815 5815 5814 5814 5813 5813 5811 5810 5809 5807 5805 5803 5801 5799 5796 5794 5790 5787 5784 5781 5777 5774 5770 5766 5762 5758 5754 5750 5746 5742
5786 5789 5791 5793 5796 5797 5799 5801 5802 5803 5805 5805 5806 5807 5807 5807 5807 5807 5807 5806 5805 5803 5802 5800 5798 5796 5794 5792 5789 5787 5784 5780 5777 5774 5770 5767 5763 5759 5755 5751 5747 5743 5739 5735
5779 5781 5783 5785 5787 5789 5791 5792 5794 5795 5797 5797 5799 5799 5800 5799 5799 5799 5799 5798 5798 5796 5795 5793 5791 5789 5787 5785 5782 5779 5776 5773 5770 5766 5763 5759 5755 5752 5748 5744 5740 5736 5732 5727
5771 5773 5775 5777 5779 5780 5782 5784 5786 5787 5789 5790 5791 5791 5792 5792 5792 5791 5791 5790 5790 5789 5787 5786 5784 5782 5780 5777 5775 5772 5769 5766 5762 5759 5755 5752 5748 5744 5740 5736 5732 5728 5724 5720
5764 5766 5767 5769 5770 5772 5774 5776 5778 5779 5780 5782 5783 5783 5784 5784 5784 5784 5783 5783 5782 5781 5780 5778 5777 5775 5772 5770 5768 5765 5762 5759 5755 5752 5748 5745 5741 5737 5733 5729 5725 5721 5717 5713
5756 5758 5760 5761 5763 5764 5766 5768 5769 5770 5771 5773 5774 5775 5775 5775 5776 5776 5775 5775 5774 5773 5772 5771 5769 5767 5765 5763 5760 5757 5754 5751 5748 5745 5741 5738 5734 5730 5726 5722 5718 5714 5710 5706
5749 5751 5752 5754 5755 5757 5759 5760 5761 5763 5764 5765 5766 5766 5767 5768 5768 5768 5768 5767 5767 5766 5765 5763 5762 5760 5758 5755 5753 5750 5747 5744 5741 5738 5735 5731 5727 5724 5720 5716 5711 5707 5703 5699
5742 5744 5746 5747 5748 5750 5752 5753 5754 5756 5757 5758 5759 5759 5760 5761 5761 5761 5761 5760 5759 5758 5757 5756 5754 5752 5750 5748 5746 5743 5740 5737 5734 5731 5727 5724 5721 5717 5713 5709 5705 5701 5697 5694
5736 5738 5739 5740 5742 5743 5745 5747 5747 5749 5750 5751 5751 5752 5752 5752 5753 5753 5753 5752 5751 5751 5749 5748 5746 5744 5742 5740 5738 5735 5733 5730 5727 5724 5721 5717 5714 5710 5706 5702 5699 5695 5691 5688
5730 5731 5732 5734 5736 5737 5739 5740 5741 5742 5743 5744 5744 5744 5745 5745 5746 5746 5745 5745 5744 5743 5742 5740 5739 5737 5735 5733 5731 5728 5725 5723 5720 5717 5714 5711 5707 5704 5700 5696 5692 5689 5685 5682
5723 5725 5726 5728 5730 5731 5732 5733 5734 5735 5736 5737 5737 5737 5738 5738 5739 5738 5738 5738 5737 5735 5734 5733 5731 5729 5727 5725 5723 5721 5718 5716 5713 5710 5707 5704 5701 5698 5694 5690 5686 5683 5679 5676
5718 5719 5721 5722 5723 5725 5725 5726 5727 5728 5729 5730 5730 5731 5731 5731 5731 5731 5731 5730 5729 5727 5726 5725 5724 5722 5720 5718 5716 5714 5711 5709 5706 5703 5700 5697 5694 5691 5688 5684 5680 5677 5673 5670
5712 5714 5715 5716 5717 5718 5719 5720 5721 5722 5722 5723 5723 5724 5724 5724 5724 5723 5723 5722 5721 5720 5718 5717 5715 5714 5712 5710 5708 5706 5704 5702 5699 5697 5694 5691 5688 5685 5681 5678 5674 5671 5667 5664
5707 5708 5709 5710 5711 5712 5712 5713 5714 5715 5716 5716 5716 5717 5717 5717 5717 5716 5715 5714 5713 5712 5711 5709 5708 5707 5705 5703 5701 5699 5697 5695 5692 5690 5687 5684 5681 5678 5675 5671 5668 5665 5661 5658
5701 5702 5703 5704 5705 5705 5706 5707 5707 5708 5709 5709 5710 5710 5710 5710 5709 5708 5708 5707 5706 5705 5703 5702 5701 5699 5698 5696 5694 5692 5690 5688 5685 5683 5680 5677 5675 5672 5669 5665 5662 5659 5655 5652
5695 5696 5697 5698 5699 5700 5700 5701 5701 5702 5702 5702 5703 5703 5703 5702 5702 5701 5701 5700 5699 5698 5696 5695 5693 5692 5690 5688 5687 5685 5682 5680 5678 5675 5673 5670 5668 5665 5662 5659 5656 5653 5649 5646